GW6410 Weather Reports


time (UTC)temp
F
wind
direction
speed
knots
gust
knots
rain 1hr
in
rain 24hr
in
rain mn
in
humidity
%
barometer
mb
20260906112506 71 234 0.0 0.0 0.00 0.00 0.00 93 1013.2
20260906112008 71 234 0.0 0.0 0.00 0.00 0.00 93 1013.1
20260906111516 70 234 0.0 0.0 0.00 0.00 0.00 93 1013.1
20260906111007 70 234 0.0 0.9 0.00 0.00 0.00 93 1013.0
20260906110508 70 234 0.0 0.9 0.00 0.00 0.00 93 1013.2
20260906110024 70 233 0.0 0.9 0.00 0.00 0.00 93 1013.0
20260906105513 70 233 0.0 0.9 0.00 0.00 0.00 93 1012.9
20260906105013 71 233 0.0 0.9 0.00 0.00 0.00 93 1012.9
20260906104529 70 233 0.0 0.0 0.00 0.00 0.00 93 1012.8
20260906104012 70 233 0.0 0.9 0.00 0.00 0.00 93 1012.7
20260906103502 70 233 0.0 0.9 0.00 0.00 0.00 93 1012.7
20260906103015 71 234 0.0 0.9 0.00 0.00 0.00 93 1012.7
20260906102504 71 234 0.0 0.9 0.00 0.00 0.00 93 1012.7
20260906102004 70 234 0.0 0.9 0.00 0.00 0.00 93 1012.7
20260906101505 70 234 0.0 0.0 0.00 0.00 0.00 93 1012.7
20260906101006 70 234 0.0 0.9 0.00 0.00 0.00 93 1012.7
20260906100504 70 234 0.0 0.9 0.00 0.00 0.00 93 1012.7
20260906100019 70 225 0.0 0.9 0.00 0.00 0.00 93 1012.8
20260906095503 70 226 0.0 0.9 0.00 0.00 0.00 93 1012.7
20260906095004 70 282 0.0 0.9 0.00 0.00 0.00 93 1012.7
20260906094506 70 282 0.0 0.9 0.00 0.00 0.00 93 1012.8
20260906094003 70 282 0.0 0.9 0.00 0.00 0.00 93 1012.9
20260906093505 70 281 0.0 0.9 0.00 0.00 0.00 93 1012.7
20260906093004 70 269 0.0 0.9 0.00 0.00 0.00 93 1012.7
20260906092502 70 269 0.0 0.9 0.00 0.00 0.00 93 1012.7
20260906092004 70 269 0.0 0.9 0.00 0.00 0.00 93 1012.8
20260906091507 70 298 0.0 0.9 0.00 0.00 0.00 93 1013.0
20260906091004 70 298 0.0 0.9 0.00 0.00 0.00 93 1012.9
20260906090504 70 299 0.0 0.9 0.00 0.00 0.00 93 1012.8
20260906090010 70 298 0.0 0.9 0.00 0.00 0.00 93 1012.8
20260906085505 70 298 0.0 0.9 0.00 0.00 0.00 93 1012.9
20260906085004 70 298 0.0 0.0 0.00 0.00 0.00 93 1012.9
20260906084507 70 298 0.0 0.0 0.00 0.00 0.00 93 1012.5
20260906084005 70 298 0.0 0.9 0.00 0.00 0.00 93 1012.6
20260906083504 70 298 0.0 0.9 0.00 0.00 0.00 93 1012.8
20260906083008 70 298 0.0 0.9 0.00 0.00 0.00 93 1012.8
20260906082503 70 298 0.0 0.9 0.00 0.00 0.00 93 1012.7
20260906082004 70 298 0.0 0.0 0.00 0.00 0.00 93 1012.5
20260906081510 70 298 0.0 0.0 0.00 0.00 0.00 93 1012.6
20260906081003 70 298 0.0 0.0 0.00 0.00 0.00 93 1012.7
20260906080504 70 298 0.0 0.0 0.00 0.00 0.00 93 1012.8
20260906080010 70 298 0.0 0.0 0.00 0.00 0.00 93 1012.7
20260906075503 70 298 0.0 0.9 0.00 0.00 0.00 93 1012.6
20260906075004 70 298 0.0 0.9 0.00 0.00 0.00 92 1012.7
20260906074511 70 298 0.0 0.0 0.00 0.00 0.00 92 1012.7
20260906074004 70 298 0.0 0.0 0.00 0.00 0.00 92 1012.7
20260906073503 70 298 0.0 0.0 0.00 0.00 0.00 92 1012.6
20260906073010 70 298 0.0 0.0 0.00 0.00 0.00 92 1012.8
20260906072507 70 298 0.0 0.0 0.00 0.00 0.00 92 1012.7
20260906072005 70 298 0.0 0.0 0.00 0.00 0.00 92 1012.8
20260906071512 70 298 0.0 0.0 0.00 0.00 0.00 91 1012.8
20260906071007 70 298 0.0 0.0 0.00 0.00 0.00 92 1012.9
20260906070507 70 298 0.0 0.0 0.00 0.00 0.00 92 1012.8
20260906070010 70 298 0.0 0.0 0.00 0.00 0.00 91 1012.8
20260906065503 70 298 0.0 0.0 0.00 0.00 0.00 91 1012.7
20260906065004 70 298 0.0 0.0 0.00 0.00 0.00 91 1012.7
20260906064510 71 298 0.0 0.0 0.00 0.00 0.00 91 1012.5
20260906064008 71 298 0.0 0.0 0.00 0.00 0.00 91 1012.7
20260906063508 71 298 0.0 0.0 0.00 0.00 0.00 90 1012.8
20260906063012 71 298 0.0 0.0 0.00 0.00 0.00 90 1012.8
20260906062507 71 298 0.0 0.0 0.00 0.00 0.00 90 1012.9
20260906062004 71 298 0.0 0.0 0.00 0.00 0.00 90 1013.1
20260906061522 71 298 0.0 0.9 0.00 0.00 0.00 90 1013.3
20260906061007 71 298 0.0 0.9 0.00 0.00 0.00 90 1013.2
20260906060504 71 241 0.0 0.0 0.00 0.00 0.00 90 1013.3
20260906060014 71 231 0.0 0.0 0.00 0.00 0.00 90 1013.3
20260906055509 71 228 0.0 0.0 0.00 0.00 0.00 90 1013.4
20260906055008 71 228 0.0 0.0 0.00 0.00 0.00 91 1013.5
20260906054525 71 228 0.0 0.0 0.00 0.00 0.00 91 1013.5
20260906054006 71 228 0.0 0.0 0.00 0.00 0.00 91 1013.5
20260906053511 71 228 0.0 0.0 0.00 0.00 0.00 91 1013.8
20260906053014 71 228 0.0 0.0 0.00 0.00 0.00 91 1013.9
20260906052504 71 228 0.0 0.9 0.00 0.00 0.00 91 1013.9
20260906052012 71 227 0.0 0.9 0.00 0.00 0.00 91 1013.9
20260906051517 71 227 0.0 0.0 0.00 0.00 0.00 91 1013.9
20260906051009 71 227 0.0 0.0 0.00 0.00 0.00 91 1013.8
20260906050509 71 227 0.0 0.0 0.00 0.00 0.00 91 1013.9
20260906050016 71 227 0.0 0.0 0.00 0.00 0.00 90 1013.8
20260906045508 72 227 0.0 0.0 0.00 0.00 0.00 90 1013.9
20260906045006 72 227 0.0 0.0 0.00 0.00 0.00 90 1013.8
20260906044515 72 227 0.0 0.0 0.00 0.00 0.00 90 1013.7
20260906044008 72 227 0.0 0.0 0.00 0.00 0.00 90 1013.6
20260906043506 72 227 0.0 0.0 0.00 0.00 0.00 89 1013.5
20260906043021 72 227 0.0 0.0 0.00 0.00 0.00 89 1013.6
20260906042508 72 227 0.0 0.0 0.00 0.00 0.00 89 1013.5
20260906042011 72 227 0.0 0.0 0.00 0.00 0.00 90 1013.4
20260906041518 72 227 0.0 0.0 0.00 0.00 0.00 89 1013.5
20260906041008 72 227 0.0 0.0 0.00 0.00 0.00 89 1013.5
20260906040509 72 227 0.0 0.0 0.00 0.00 0.00 89 1013.4
20260906040019 73 227 0.0 0.0 0.00 0.00 0.00 89 1013.4
20260906035507 73 227 0.0 0.0 0.00 0.00 0.00 89 1013.4
20260906035006 73 227 0.0 0.0 0.00 0.00 0.00 89 1013.4
20260906034516 73 227 0.0 0.0 0.00 0.00 0.00 88 1013.4
20260906034009 73 227 0.0 0.0 0.00 0.00 0.00 88 1013.4
20260906033508 73 227 0.0 0.0 0.00 0.00 0.00 88 1013.5
20260906033017 73 227 0.0 0.0 0.00 0.00 0.00 88 1013.4
20260906032510 73 227 0.0 0.9 0.00 0.00 0.00 88 1013.5
20260906032013 73 227 0.0 0.9 0.00 0.00 0.00 88 1013.7
20260906031515 73 227 0.0 0.0 0.00 0.00 0.00 87 1013.7
20260906031007 73 227 0.0 0.0 0.00 0.00 0.00 87 1013.7
20260906030508 74 227 0.0 0.9 0.00 0.00 0.00 87 1013.7
20260906030020 74 227 0.0 0.9 0.00 0.00 0.00 87 1013.8
20260906025508 74 226 0.0 0.0 0.00 0.00 0.00 87 1013.9
20260906025008 74 226 0.0 0.0 0.00 0.00 0.00 87 1014.0
20260906024518 74 226 0.0 0.0 0.00 0.00 0.00 86 1014.1
20260906024008 74 226 0.0 0.0 0.00 0.00 0.00 86 1014.2
20260906023508 75 226 0.0 0.0 0.00 0.00 0.00 85 1014.3
20260906023018 75 226 0.0 0.0 0.00 0.00 0.00 85 1014.2
20260906022509 75 226 0.0 0.0 0.00 0.00 0.00 85 1014.2
20260906022010 75 226 0.0 0.0 0.00 0.00 0.00 85 1014.5
20260906021535 75 226 0.0 0.0 0.00 0.00 0.00 84 1014.6
20260906021010 75 226 0.0 0.0 0.00 0.00 0.00 84 1014.4
20260906020515 75 241 0.0 0.0 0.00 0.00 0.00 84 1014.4
20260906020020 75 242 0.0 0.0 0.00 0.00 0.00 84 1014.6
20260906015508 76 242 0.0 0.0 0.00 0.00 0.00 84 1014.6
20260906015010 76 242 0.0 0.0 0.00 0.00 0.00 84 1014.5
20260906014524 76 242 0.0 0.0 0.00 0.00 0.00 83 1014.6
20260906014012 76 242 0.0 0.0 0.00 0.00 0.00 83 1014.5
20260906013510 76 242 0.0 0.9 0.00 0.00 0.00 83 1014.3
20260906013034 77 242 0.0 0.9 0.00 0.00 0.00 82 1014.0
20260906012503 77 242 0.0 0.9 0.00 0.00 0.00 81 1013.8
20260906012003 77 242 0.0 0.9 0.00 0.00 0.00 81 1013.5
20260906011504 77 151 0.0 0.9 0.00 0.00 0.00 81 1013.6
20260906011002 78 150 0.0 0.0 0.00 0.00 0.00 80 1013.4
20260906010508 78 150 0.0 0.0 0.00 0.00 0.00 79 1013.5
20260906010013 78 150 0.0 0.0 0.00 0.00 0.00 79 1013.5
20260906005505 78 150 0.0 0.0 0.00 0.00 0.00 79 1013.6
20260906005009 78 150 0.0 0.0 0.00 0.00 0.00 79 1013.6
20260906004515 79 150 0.0 0.0 0.00 0.00 0.00 78 1013.8
20260906004009 79 150 0.0 0.0 0.00 0.00 0.00 77 1013.9
20260906003510 79 150 0.0 0.0 0.00 0.00 0.00 76 1014.0
20260906003024 80 150 0.0 0.9 0.00 0.00 0.00 75 1013.7
20260906002510 80 150 0.0 0.9 0.00 0.00 0.00 75 1013.8
20260906002012 80 153 0.0 1.7 0.00 0.00 0.00 75 1013.8
20260906001527 80 233 0.0 1.7 0.00 0.00 0.00 74 1013.6
20260906001004 80 267 0.0 0.9 0.00 0.00 0.00 74 1013.5
20260906000503 80 31 0.0 0.9 0.00 0.00 0.00 74 1013.2
20260906000008 80 45 0.0 0.0 0.00 0.00 0.00 74 1012.6
20260905235503 80 46 0.0 0.0 0.00 0.00 0.00 73 1012.1
20260905235003 81 45 0.0 0.0 0.00 0.00 0.00 73 1011.8
20260905234512 81 46 0.0 0.0 0.00 0.00 0.00 72 1011.7
20260905234007 81 45 0.0 0.0 0.00 0.00 0.00 72 1011.8
20260905233508 81 46 0.0 0.9 0.00 0.00 0.00 72 1012.2
20260905233021 81 45 0.0 0.9 0.00 0.00 0.00 71 1012.4
20260905232510 81 45 0.0 0.9 0.00 0.00 0.00 71 1012.4
20260905232012 81 46 0.0 0.9 0.00 0.00 0.00 71 1012.3
20260905231526 82 45 0.0 0.0 0.00 0.00 0.00 70 1012.2
20260905231011 82 45 0.0 0.9 0.00 0.00 0.00 70 1012.2
20260905230513 82 45 0.0 0.9 0.00 0.00 0.00 70 1012.1
20260905230031 82 46 0.0 0.9 0.00 0.00 0.00 69 1012.0
20260905225513 83 46 0.0 0.9 0.00 0.00 0.00 68 1012.1
20260905225003 83 46 0.0 0.9 0.00 0.00 0.00 68 1012.1
20260905224515 84 46 0.0 0.9 0.00 0.00 0.00 66 1012.1
20260905224007 84 44 0.0 0.9 0.00 0.00 0.00 65 1012.4
20260905223510 84 44 0.0 2.6 0.00 0.00 0.00 65 1012.6
20260905223015 84 44 0.0 2.6 0.00 0.00 0.00 64 1012.6
20260905222506 85 39 0.9 3.5 0.00 0.00 0.00 63 1012.5
20260905222010 86 66 0.9 3.5 0.00 0.00 0.00 63 1012.5
20260905221523 87 7 0.9 4.3 0.00 0.00 0.00 61 1012.6
20260905221012 88 360 0.0 5.2 0.00 0.00 0.00 58 1012.5
20260905220512 89 12 1.7 8.7 0.00 0.00 0.00 56 1012.4
20260905220030 90 3 1.7 9.6 0.00 0.00 0.00 55 1012.5
20260905215513 92 53 3.5 12.2 0.00 0.00 0.00 53 1012.4
20260905215013 95 354 7.0 12.2 0.00 0.00 0.00 50 1012.1
20260905214530 98 316 6.1 9.6 0.00 0.00 0.00 46 1011.9
20260905214014 99 359 0.0 2.6 0.00 0.00 0.00 45 1011.7
20260905213503 100 1 1.7 2.6 0.00 0.00 0.00 43 1011.6
20260905213010 100 349 0.0 1.7 0.00 0.00 0.00 48 1011.4
20260905212504 100 349 0.0 2.6 0.00 0.00 0.00 46 1011.5
20260905212008 100 291 0.0 2.6 0.00 0.00 0.00 46 1011.5
20260905211519 100 95 0.0 0.9 0.00 0.00 0.00 46 1011.5
20260905211009 99 94 0.0 1.7 0.00 0.00 0.00 49 1011.7
20260905210510 99 94 0.0 1.7 0.00 0.00 0.00 44 1011.7
20260905210023 98 300 0.0 1.7 0.00 0.00 0.00 44 1011.5
20260905205512 98 325 0.9 1.7 0.00 0.00 0.00 45 1011.8
20260905205014 99 313 0.9 1.7 0.00 0.00 0.00 46 1011.7
20260905204531 100 285 0.0 1.7 0.00 0.00 0.00 46 1011.8
20260905204016 100 327 0.0 3.5 0.00 0.00 0.00 46 1011.8
20260905203512 100 143 0.0 3.5 0.00 0.00 0.00 43 1011.9
20260905203029 100 151 0.9 2.6 0.00 0.00 0.00 44 1012.0
20260905202514 100 210 0.0 1.7 0.00 0.00 0.00 43 1012.0
20260905202016 99 191 0.9 2.6 0.00 0.00 0.00 45 1012.2
20260905201514 99 195 0.9 2.6 0.00 0.00 0.00 44 1012.2
20260905201003 99 286 0.9 1.7 0.00 0.00 0.00 45 1012.3
20260905200508 99 274 0.0 2.6 0.00 0.00 0.00 47 1012.3
20260905200024 99 338 0.0 2.6 0.00 0.00 0.00 46 1012.3
20260905195507 99 342 0.0 0.9 0.00 0.00 0.00 51 1012.3
20260905195011 99 338 0.9 0.9 0.00 0.00 0.00 49 1012.3
20260905194527 98 3 0.0 2.6 0.00 0.00 0.00 47 1012.3
20260905194010 98 347 0.9 2.6 0.00 0.00 0.00 49 1012.5
20260905193521 99 289 0.9 1.7 0.00 0.00 0.00 47 1012.5
20260905193030 100 8 0.0 1.7 0.00 0.00 0.00 46 1012.5
20260905192515 100 12 0.0 2.6 0.00 0.00 0.00 48 1012.6
20260905192014 99 68 0.9 2.6 0.00 0.00 0.00 46 1012.7
20260905191538 99 288 0.0 2.6 0.00 0.00 0.00 48 1012.7
20260905191014 99 212 0.9 2.6 0.00 0.00 0.00 44 1012.7
20260905190515 99 143 0.9 2.6 0.00 0.00 0.00 44 1012.9
20260905190016 99 338 0.0 1.7 0.00 0.00 0.00 46 1013.0
20260905185504 98 238 0.0 2.6 0.00 0.00 0.00 46 1013.1
20260905185012 98 134 0.0 2.6 0.00 0.00 0.00 46 1013.0
20260905184522 98 182 0.9 2.6 0.00 0.00 0.00 46 1013.1
20260905184008 98 261 0.9 3.5 0.00 0.00 0.00 46 1013.1
20260905183510 98 140 0.0 3.5 0.00 0.00 0.00 49 1013.2
20260905183027 97 108 0.0 3.5 0.00 0.00 0.00 50 1013.3
20260905182512 97 115 0.0 3.5 0.00 0.00 0.00 49 1013.3
20260905182012 98 184 0.0 1.7 0.00 0.00 0.00 49 1013.4
20260905181532 98 231 0.0 1.7 0.00 0.00 0.00 48 1013.4
20260905181017 98 343 0.0 1.7 0.00 0.00 0.00 54 1013.6
20260905180516 98 170 0.0 2.6 0.00 0.00 0.00 50 1013.7
20260905180032 97 216 0.0 2.6 0.00 0.00 0.00 49 1013.7
20260905175518 98 348 0.9 3.5 0.00 0.00 0.00 54 1013.8
20260905175019 97 226 1.7 3.5 0.00 0.00 0.00 48 1013.9
20260905174534 97 145 0.0 3.5 0.00 0.00 0.00 51 1013.7
20260905174006 97 200 0.9 1.7 0.00 0.00 0.00 53 1013.7
20260905173509 97 103 0.0 0.9 0.00 0.00 0.00 50 1014.0
20260905173019 97 101 0.0 0.9 0.00 0.00 0.00 57 1014.1
20260905172510 96 220 0.0 1.7 0.00 0.00 0.00 55 1014.1
20260905172010 96 324 0.9 1.7 0.00 0.00 0.00 55 1014.1
20260905171537 96 20 0.0 1.7 0.00 0.00 0.00 53 1014.2
20260905171013 96 354 0.0 1.7 0.00 0.00 0.00 53 1014.2
20260905170513 96 2 0.0 1.7 0.00 0.00 0.00 56 1014.3
20260905170032 95 108 0.0 0.9 0.00 0.00 0.00 55 1014.3
20260905165516 95 123 0.0 0.9 0.00 0.00 0.00 59 1014.5
20260905165016 95 344 0.0 1.7 0.00 0.00 0.00 58 1014.5
20260905164534 94 255 0.0 2.6 0.00 0.00 0.00 60 1014.5
20260905164019 94 265 0.0 2.6 0.00 0.00 0.00 57 1014.5
20260905163508 94 291 1.7 2.6 0.00 0.00 0.00 60 1014.5
20260905163018 93 254 0.9 4.3 0.00 0.00 0.00 57 1014.7
20260905162512 93 349 2.6 4.3 0.00 0.00 0.00 58 1014.7
20260905162010 93 205 0.0 2.6 0.00 0.00 0.00 57 1014.7
20260905161523 93 270 0.0 1.7 0.00 0.00 0.00 59 1014.8
20260905161010 93 336 0.9 2.6 0.00 0.00 0.00 59 1014.8
20260905160503 93 269 0.0 2.6 0.00 0.00 0.00 57 1014.8
20260905160014 92 120 0.9 2.6 0.00 0.00 0.00 60 1014.8
20260905155502 92 296 0.9 1.7 0.00 0.00 0.00 60 1014.9
20260905155003 92 328 0.0 1.7 0.00 0.00 0.00 59 1014.9
20260905154508 92 190 0.0 1.7 0.00 0.00 0.00 63 1015.0
20260905154004 92 233 0.0 1.7 0.00 0.00 0.00 64 1015.1
20260905153504 91 300 0.9 1.7 0.00 0.00 0.00 63 1015.3
20260905153011 91 329 0.9 1.7 0.00 0.00 0.00 67 1015.4
20260905152504 90 105 0.0 2.6 0.00 0.00 0.00 68 1015.5
20260905152007 89 344 0.9 2.6 0.00 0.00 0.00 66 1015.5
20260905151518 89 326 1.7 2.6 0.00 0.00 0.00 65 1015.6
20260905151009 89 326 0.9 3.5 0.00 0.00 0.00 68 1015.6
20260905150510 88 321 0.0 3.5 0.00 0.00 0.00 68 1015.6
20260905150027 88 279 0.0 1.7 0.00 0.00 0.00 69 1015.6
20260905145512 88 265 0.0 1.7 0.00 0.00 0.00 70 1015.7
20260905145012 87 301 0.9 1.7 0.00 0.00 0.00 70 1015.7
20260905144514 86 257 0.0 0.0 0.00 0.00 0.00 73 1015.6
20260905144003 86 235 0.0 0.0 0.00 0.00 0.00 72 1015.7
20260905143503 85 314 0.0 0.0 0.00 0.00 0.00 76 1015.7
20260905143007 85 316 0.0 0.0 0.00 0.00 0.00 75 1015.8
20260905142502 84 334 0.0 0.0 0.00 0.00 0.00 78 1015.8
20260905142004 83 104 0.0 0.0 0.00 0.00 0.00 80 1015.8
20260905141514 83 232 0.0 0.0 0.00 0.00 0.00 81 1015.8
20260905141009 82 229 0.0 0.0 0.00 0.00 0.00 82 1015.8
20260905140505 82 299 0.0 0.0 0.00 0.00 0.00 82 1015.8
20260905140018 81 299 0.0 0.0 0.00 0.00 0.00 84 1015.8
20260905135507 81 299 0.0 0.0 0.00 0.00 0.00 84 1015.8
20260905135010 80 322 0.0 0.0 0.00 0.00 0.00 85 1015.9
20260905134527 80 322 0.0 0.0 0.00 0.00 0.00 85 1015.9
20260905134014 79 322 0.0 0.0 0.00 0.00 0.00 86 1015.8
20260905133512 78 211 0.0 0.0 0.00 0.00 0.00 87 1015.8
20260905133006 78 210 0.0 0.0 0.00 0.00 0.00 88 1015.8
20260905132503 77 209 0.0 0.0 0.00 0.00 0.00 89 1015.8
20260905132007 76 207 0.0 0.0 0.00 0.00 0.00 90 1015.9
20260905131508 76 203 0.0 0.0 0.00 0.00 0.00 92 1016.0
20260905131004 75 207 0.0 0.0 0.00 0.00 0.00 93 1016.0
20260905130509 75 207 0.0 0.0 0.00 0.00 0.00 94 1016.1
20260905130015 75 196 0.0 0.0 0.00 0.00 0.00 95 1016.0
20260905125508 74 195 0.0 0.0 0.00 0.00 0.00 95 1016.1
20260905125011 74 196 0.0 0.0 0.00 0.00 0.00 95 1016.1
20260905124524 74 196 0.0 0.0 0.00 0.00 0.00 96 1016.0
20260905124013 73 196 0.0 0.0 0.00 0.00 0.00 96 1016.0
20260905123510 73 196 0.0 0.0 0.00 0.01 0.00 96 1016.0
20260905123026 72 196 0.0 0.0 0.00 0.01 0.00 96 1016.0
20260905122514 72 196 0.0 0.0 0.00 0.01 0.00 95 1015.9
20260905122022 71 196 0.0 0.0 0.00 0.01 0.00 95 1015.9
20260905121504 71 196 0.0 0.0 0.00 0.01 0.00 95 1015.9
20260905121004 71 196 0.0 0.0 0.00 0.01 0.00 95 1015.9
20260905120504 70 196 0.0 0.0 0.00 0.01 0.00 95 1015.9
20260905120009 70 196 0.0 0.0 0.00 0.01 0.00 95 1015.9
20260905115504 70 196 0.0 0.0 0.00 0.01 0.00 95 1015.8
20260905115006 70 196 0.0 0.0 0.00 0.01 0.00 95 1015.6
20260905114518 70 196 0.0 0.0 0.00 0.01 0.00 95 1015.6
20260905114007 70 196 0.0 0.0 0.00 0.01 0.00 95 1015.5
20260905113509 70 196 0.0 0.0 0.00 0.01 0.00 95 1015.4
20260905113023 70 196 0.0 0.0 0.00 0.01 0.00 95 1015.4